Weather History for KTBX - October, 2013

Change the Weather History Date:

Tuesday, October 29, 2013

  Actual Average (KWRL) Record (KWRL)
Temperature  
Mean Temperature 22 °F 40 °F  
Max Temperature 26 °F 55 °F 80 °F (1968)
Min Temperature 21 °F 26 °F 2 °F (1991)
Degree Days  
Heating Degree Days 42 25  
Month to date heating degree days 554  
Since 1 July heating degree days 811  
Cooling Degree Days 0 0  
Month to date cooling degree days 0  
Year to date cooling degree days 535  
Moisture  
Dew Point 23 °F    
Average Humidity 97    
Maximum Humidity 100    
Minimum Humidity 93    
Precipitation  
Precipitation 0.00 in 0.01 in 0.11 in (1973)
Month to date precipitation 0.66  
Year to date precipitation 6.96  
Sea Level Pressure  
Sea Level Pressure 29.95 in    
Wind  
Wind Speed 7 mph (SE)    
Max Wind Speed 28 mph    
Max Gust Speed 48 mph    
T = Trace of Precipitation, MM = Missing Value Source: NWS Daily Summary

Daily Weather History Graph

Daily Weather History Graph

Search for Another Location

Airport or City:

Trip Planner

Search our weather history database for the weather conditions in past years. The results will help you decide how hot, cold, wet, or windy it might be!

Date:

Astronomy

Oct. 29, 2013 Rise Set
Actual Time 7:44 AM MDT 6:07 PM MDT
Civil Twilight 7:15 AM MDT 6:37 PM MDT
Nautical Twilight 6:41 AM MDT 7:10 PM MDT
Astronomical Twilight 6:08 AM MDT 7:44 PM MDT
Moon 2:29 AM MDT (10/29) 3:30 PM MDT (10/29)
Length of Visible Light 11h 22m
Length of Day
10h 22m
Waning Crescent, 24% of the Moon is Illuminated
Oct 29
Waning Crescent
Nov 3
New
Nov 9
First Quarter
Nov 17
Full
Nov 25
Last Quarter

Hourly Weather History & Observations

Time (MDT) Temp. Windchill Dew Point Humidity Pressure Visibility Wind Dir Wind Speed Gust Speed Precip Events Conditions
12:15 AM - - - N/A% 30.02 in - North - - N/A   Overcast
12:35 AM - - - N/A% 30.01 in - North - - N/A   Overcast
12:55 AM - - - N/A% 30.02 in - NW 5.8 mph - N/A   Overcast
1:15 AM - - - N/A% 30.02 in - NW 4.6 mph - N/A   Overcast
1:35 AM - - - N/A% 30.02 in - Calm Calm - N/A   Overcast
1:55 AM - - - N/A% 30.01 in - NNW 3.5 mph - N/A   Overcast
2:15 AM - - - N/A% 30.01 in - NNW 3.5 mph - N/A   Overcast
2:35 AM - - - N/A% 30.00 in - Calm Calm - N/A   Overcast
2:55 AM - - - N/A% 30.00 in - Calm Calm - N/A   Overcast
3:15 AM - - - N/A% 30.00 in - Calm Calm - N/A   Overcast
3:35 AM - - - N/A% 29.99 in - Calm Calm - N/A   Unknown
3:55 AM - - - N/A% 29.99 in - SE 3.5 mph - N/A   Unknown
4:15 AM - - - N/A% 29.98 in - SE 3.5 mph - N/A   Overcast
4:35 AM - - - N/A% 29.98 in - SE 4.6 mph - N/A   Overcast
4:55 AM 21.2 °F 12.6 °F 21.2 °F 100% 29.99 in - SE 6.9 mph - N/A   Overcast
5:15 AM - - - N/A% 29.97 in - SE 5.8 mph - N/A   Overcast
5:55 AM - - - N/A% 29.98 in - SE 8.1 mph - N/A   Overcast
6:15 AM - - - N/A% 29.98 in - SE 6.9 mph - N/A   Overcast
6:35 AM - - - N/A% 29.97 in - SSE 4.6 mph - N/A   Overcast
6:55 AM - - - N/A% 29.97 in - SSE 10.4 mph - N/A   Overcast
7:15 AM - - - N/A% 29.97 in - SSE 10.4 mph - N/A   Overcast
7:35 AM - - - N/A% 29.96 in - SSE 11.5 mph 17.3 mph N/A   Overcast
7:55 AM - - - N/A% 29.95 in - SSE 12.7 mph - N/A   Overcast
8:15 AM - - - N/A% 29.95 in - SE 15.0 mph 21.9 mph N/A   Overcast
8:55 AM - - - N/A% 29.94 in - SE 27.6 mph - N/A   Overcast
9:15 AM - - - N/A% 29.94 in - SE 25.3 mph 31.1 mph N/A   Overcast
9:35 AM - - - N/A% 29.94 in - SE 21.9 mph 31.1 mph N/A   Overcast
9:55 AM - - - N/A% 29.94 in - SE 26.5 mph - N/A   Overcast
10:15 AM - - - N/A% 29.94 in - SE 26.5 mph 34.5 mph N/A   Overcast
10:35 AM 23.0 °F 6.9 °F 21.2 °F 93% 29.94 in - SE 24.2 mph 48.3 mph N/A   Overcast
10:55 AM - - - N/A% 29.94 in - ESE 18.4 mph 32.2 mph N/A   Overcast
11:15 AM - - - N/A% 29.93 in - SE 20.7 mph 25.3 mph N/A   Overcast
11:35 AM - - - N/A% 29.93 in - SE 17.3 mph - N/A   Overcast
11:55 AM - - - N/A% 29.94 in - ESE 11.5 mph - N/A   Overcast
12:15 PM - - - N/A% 29.94 in - SE 11.5 mph 17.3 mph N/A   Overcast
12:35 PM - - - N/A% 29.93 in - East 6.9 mph - N/A   Overcast
12:55 PM - - - N/A% 29.93 in - ESE 5.8 mph - N/A   Overcast
1:15 PM 23.0 °F - 23.0 °F 100% 29.93 in - North - - N/A   Overcast
1:35 PM 23.0 °F - 23.0 °F 100% 29.93 in - North - - N/A   Overcast
1:55 PM - - - N/A% 29.93 in - North - - N/A   Overcast
2:15 PM - - - N/A% 29.93 in - ESE 9.2 mph - N/A   Overcast
2:35 PM - - - N/A% 29.93 in - North - - N/A   Overcast
2:55 PM - - - N/A% 29.93 in - North - - N/A   Overcast
3:15 PM - - - N/A% 29.92 in - North - - N/A   Overcast
3:35 PM - - - N/A% 29.92 in - North - - N/A   Unknown
3:55 PM - - - N/A% 29.91 in - SSE 5.8 mph - N/A   Overcast
4:15 PM - - - N/A% 29.91 in - SE 6.9 mph - N/A   Unknown
4:35 PM - - - N/A% 29.91 in - SE 8.1 mph - N/A   Overcast
4:55 PM - - - N/A% 29.91 in - SE 10.4 mph - N/A   Overcast
5:15 PM - - - N/A% 29.91 in - SE 6.9 mph - N/A   Overcast
5:35 PM - - - N/A% 29.90 in - SE 8.1 mph - N/A   Overcast
5:55 PM 23.0 °F 13.9 °F 23.0 °F 100% 29.90 in - SE 8.1 mph - N/A   Overcast
6:15 PM - - - N/A% 29.91 in - SSE 4.6 mph - N/A   Overcast
6:35 PM 23.0 °F 15.8 °F 23.0 °F 100% 29.91 in - SSE 5.8 mph - N/A   Overcast
6:55 PM 24.8 °F 16.1 °F 23.0 °F 93% 29.91 in - SE 8.1 mph - N/A   Overcast
7:15 PM 23.0 °F 13.1 °F 23.0 °F 100% 29.92 in - SE 9.2 mph - N/A   Overcast
7:35 PM 24.8 °F 16.1 °F 23.0 °F 93% 29.92 in - SE 8.1 mph - N/A   Overcast
7:55 PM - - - N/A% 29.92 in - SE 6.9 mph - N/A   Overcast
8:15 PM 24.8 °F - 23.0 °F 93% 29.93 in - North - - N/A   Overcast
8:35 PM 23.0 °F - 23.0 °F 100% 29.93 in - North - - N/A   Unknown
8:55 PM 26.6 °F - 24.8 °F 93% 29.92 in - North - - N/A   Unknown
9:15 PM - - - N/A% 29.92 in - North - - N/A   Overcast
9:35 PM - - - N/A% 29.92 in - North - - N/A   Overcast
9:55 PM - - - N/A% 29.92 in - Calm Calm - N/A   Unknown
10:15 PM - - - N/A% 29.92 in - Calm Calm - N/A   Unknown
10:35 PM - - - N/A% 29.92 in - North - - N/A   Unknown
10:55 PM - - - N/A% 29.91 in - North - - N/A   Unknown
11:15 PM - - - N/A% 29.91 in - Calm Calm - N/A   Unknown
11:35 PM - - - N/A% 29.91 in - Calm Calm - N/A   Unknown
11:55 PM - - - N/A% 29.91 in - ESE 5.8 mph - N/A   Unknown